User: anonymous   Login
Location: Gollag?dem
(16.8053°N, 80.8024°E)
Time: 16:12:28
(UTC+00:00)
Language:

SL-08 R/B - Orbit

View from above orbital plane
View from above orbital plane
View from above satellite
View from above satellite

Ground track
Ground track

The orbit data is extracted from the following two-line orbital elements,

1 27819U 03023B   20292.84013990  .00000039  00000-0  25556-4 0  9993
2 27819  82.9514 203.0728 0044939 264.4913 156.0741 13.74240115871387
Epoch (UTC): 18 October 2020 20:09:48
Eccentricity: 0.0044939
inclination: 82.9514°
perigee height: 951 km
apogee height: 1017 km
right ascension of ascending node: 203.0728°
argument of perigee: 264.4913°
revolutions per day: 13.74240115
mean anomaly at epoch: 156.0741°
orbit number at epoch: 87138

The dashed part of the orbit path shows where the satellite is in the earth's shadow,  

DLR